Location: Casalecchio di Reno
(44.4760°N, 11.2757°E)
Time: 23:28:51
(UTC+02:00)

QB50P2 - Pass Details

Date: 23 June 2024
Orbit: 561 x 578 km, 98.0° (Epoch: 17 July)

Event Time Altitude Azimuth Distance (km) Brightness Sun altitude
Rises 03:56:58 0° 14° (NNE) 2,767 ? -12.9°
Reaches altitude 10° 03:59:07 10° 16° (NNE) 1,865 ? -12.7°
Maximum altitude 04:03:09 75° 103° (ESE) 587 ? -12.2°
Enters shadow 04:06:38 13° 188° (S) 1,635 ? -11.8°
